SONATE-2

Last updated on Mon Sep 07 2026 00:03:13 GMT+0000 (Coordinated Universal Time)

1 59112U 24043Q 26249.37978690 .00034995 00000+0 35618-3 0 9998 2 59112 97.5609 45.1937 0005138 257.1776 102.8909 15.65061047140567
UTC large
Height (km)
Speed (km/s)
/
Latitude / Longitude
Inclination (degrees)
Orbital Period (minutes)
Azimuth
Elevation
Range (km)
Doppler Factor

Next 0 passes for location: London (51.5072 / 0.1276)

No passes found over London.
SONATE-2